Weather History for KOGB - December, 2012

Change the Weather History Date:

Thursday, December 13, 2012

  Actual Average Record
Temperature  
Mean Temperature 46 °F 48 °F  
Max Temperature 51 °F 59 °F - ()
Min Temperature 41 °F 37 °F - ()
Degree Days  
Heating Degree Days 19 17  
Month to date heating degree days 83 201  
Since 1 July heating degree days 533 570  
Cooling Degree Days 0 0  
Month to date cooling degree days 2 0  
Year to date cooling degree days 2322 2102  
Moisture  
Dew Point 38 °F    
Average Humidity 81    
Maximum Humidity 89    
Minimum Humidity 63    
Precipitation  
Precipitation 0.47 in 0.10 in - ()
Month to date precipitation 0.81 1.44  
Year to date precipitation 39.11 44.85  
Sea Level Pressure  
Sea Level Pressure 30.29 in    
Wind  
Wind Speed 8 mph (NNE)    
Max Wind Speed 16 mph    
Max Gust Speed 23 mph    
Visibility 8 miles    
Events Rain    
T = Trace of Precipitation, MM = Missing Value Source: NWS Daily Summary

Daily Weather History Graph

Daily Weather History Graph

Search for Another Location

Airport or City:

Trip Planner

Search our weather history database for the weather conditions in past years. The results will help you decide how hot, cold, wet, or windy it might be!

Date:

Astronomy

Dec. 13, 2012 Rise Set
Actual Time 7:19 AM EST 5:16 PM EST
Civil Twilight 6:51 AM EST 5:44 PM EST
Nautical Twilight 6:20 AM EST 6:15 PM EST
Astronomical Twilight 5:50 AM EST 6:45 PM EST
Moon 7:26 AM EST (12/13) 5:56 PM EST (12/13)
Length of Visible Light 10h 52m
Length of Day
9h 57m
New Moon, 0% of the Moon is Illuminated
Dec 13
New Moon
Dec 20
First Quarter
Dec 28
Full
Jan 4
Last Quarter
Jan 11
New

Hourly Weather History & Observations

Time (EST) Temp. Windchill Dew Point Humidity Pressure Visibility Wind Dir Wind Speed Gust Speed Precip Events Conditions
12:34 AM 42.8 °F 38.0 °F 39.2 °F 87% 30.25 in 2.0 mi NNE 8.1 mph - 0.22 in Rain Heavy Rain
12:49 AM 42.8 °F 36.6 °F 39.2 °F 87% 30.24 in 4.0 mi NNE 11.5 mph 19.6 mph 0.31 in Rain Rain
12:53 AM 43.0 °F 35.7 °F 39.9 °F 89% 30.24 in 5.0 mi NNE 15.0 mph - 0.32 in Rain Rain
1:00 AM 42.8 °F 37.5 °F 39.2 °F 87% 30.24 in 7.0 mi NNE 9.2 mph 19.6 mph 0.01 in Rain Light Rain
1:53 AM 42.1 °F 34.5 °F 39.0 °F 89% 30.22 in 5.0 mi NE 15.0 mph 19.6 mph 0.12 in Rain Rain
2:43 AM 42.8 °F 37.5 °F 37.4 °F 81% 30.21 in 10.0 mi ENE 9.2 mph 18.4 mph 0.04 in Rain Light Rain
2:50 AM 42.8 °F 37.0 °F 37.4 °F 81% 30.22 in 10.0 mi NNE 10.4 mph - 0.04 in Rain Light Rain
2:53 AM 42.1 °F 35.7 °F 37.9 °F 85% 30.22 in 10.0 mi NNE 11.5 mph 17.3 mph 0.04 in Rain Light Rain
3:21 AM 42.8 °F 37.5 °F 37.4 °F 81% 30.21 in 10.0 mi NE 9.2 mph - 0.01 in Rain Light Rain
3:53 AM 42.1 °F 37.1 °F 37.9 °F 85% 30.22 in 10.0 mi NE 8.1 mph - 0.01 in Rain Light Rain
4:32 AM 42.8 °F 38.6 °F 37.4 °F 81% 30.24 in 10.0 mi North 6.9 mph - 0.00 in   Overcast
4:53 AM 42.1 °F 35.7 °F 39.0 °F 89% 30.25 in 10.0 mi NNE 11.5 mph - 0.00 in   Overcast
5:19 AM 42.8 °F 35.8 °F 37.4 °F 81% 30.25 in 10.0 mi North 13.8 mph 20.7 mph N/A   Overcast
5:53 AM 42.1 °F 36.6 °F 37.9 °F 85% 30.27 in 9.0 mi North 9.2 mph - N/A   Overcast
6:45 AM 41.0 °F 33.1 °F 37.4 °F 87% 30.28 in 9.0 mi NNE 15.0 mph 20.7 mph N/A   Overcast
6:53 AM 41.0 °F 33.1 °F 37.0 °F 86% 30.28 in 10.0 mi NNE 15.0 mph - N/A   Overcast
7:20 AM 41.0 °F 34.3 °F 37.4 °F 87% 30.29 in 6.0 mi NNE 11.5 mph 20.7 mph N/A   Overcast
7:53 AM 41.0 °F 34.7 °F 37.9 °F 89% 30.31 in 6.0 mi NNE 10.4 mph - N/A   Overcast
8:11 AM 41.0 °F 34.3 °F 37.4 °F 87% 30.31 in 2.0 mi NNE 11.5 mph - N/A   Overcast
8:37 AM 41.0 °F 33.9 °F 37.4 °F 87% 30.33 in 3.0 mi NNE 12.7 mph - N/A   Overcast
8:53 AM 42.1 °F 37.1 °F 37.9 °F 85% 30.34 in 4.0 mi North 8.1 mph 17.3 mph N/A   Overcast
9:53 AM 42.1 °F 36.1 °F 37.9 °F 85% 30.35 in 8.0 mi NNE 10.4 mph 19.6 mph N/A   Overcast
10:19 AM 42.8 °F 35.8 °F 37.4 °F 81% 30.35 in 9.0 mi NE 13.8 mph 19.6 mph N/A   Overcast
10:53 AM 43.0 °F 36.4 °F 39.0 °F 86% 30.35 in 9.0 mi NE 12.7 mph - N/A   Overcast
11:53 AM 45.0 °F 38.9 °F 39.0 °F 80% 30.34 in 10.0 mi NNE 12.7 mph - N/A   Overcast
12:48 PM 46.4 °F 41.9 °F 39.2 °F 76% 30.32 in 10.0 mi NNE 9.2 mph - N/A   Overcast
12:53 PM 46.9 °F - 39.9 °F 77% 30.32 in 10.0 mi NNE 8.1 mph - N/A   Overcast
1:53 PM 50.0 °F - 39.9 °F 68% 30.30 in 10.0 mi NE 6.9 mph - N/A   Overcast
2:53 PM 51.1 °F - 39.9 °F 66% 30.29 in 10.0 mi NNE 10.4 mph - N/A   Overcast
3:53 PM 51.1 °F - 39.9 °F 66% 30.29 in 10.0 mi NE 4.6 mph - N/A   Overcast
4:28 PM 51.8 °F - 41.0 °F 67% 30.29 in 10.0 mi NE 4.6 mph - N/A   Overcast
4:53 PM 51.1 °F - 41.0 °F 68% 30.30 in 10.0 mi NNE 4.6 mph - N/A   Mostly Cloudy
5:09 PM 50.0 °F - 41.0 °F 71% 30.30 in 10.0 mi Calm Calm - N/A   Mostly Cloudy
6:53 PM 46.0 °F - 39.9 °F 79% 30.32 in 10.0 mi Calm Calm - N/A   Clear
8:53 PM 46.0 °F 43.1 °F 37.9 °F 73% 30.31 in 10.0 mi NE 5.8 mph - N/A   Clear
9:53 PM 45.0 °F 42.6 °F 37.0 °F 74% 30.33 in 10.0 mi ENE 4.6 mph - N/A   Clear
10:53 PM 43.0 °F - 36.0 °F 76% 30.35 in 10.0 mi Calm Calm - N/A   Clear
11:53 PM 43.0 °F 39.5 °F 36.0 °F 76% 30.34 in 10.0 mi NE 5.8 mph - N/A   Clear